Home   Weather   Stephenville   Past weeks

Flag for Canada Past Weather in Stephenville, Newfoundland and Labrador, Canada — Yesterday and Last 2 Weeks

Now
5 °F

Passing clouds.


Feels Like: -2 °F
Forecast: 7 / 27 °F
Wind: 3 mph from Northeast

Location: Stephenville

Current Time: Jan 18, 2017 at 11:07:20 pm

Latest Report: Jan 18, 2017 at 10:30 pm


Visibility: 15 mi

Pressure: 30.19 "Hg

Humidity: 92%

Dew Point: 3 °F

Location of StephenvilleLocation

Past Weather in Stephenville — Graph

°F

Stephenville Temperature Yesterday

Maximum temperature yesterday: 27 °F (at 2:18 am)
Minimum temperature yesterday: 10 °F (at 7:30 pm)
Average temperature yesterday: 18 °F

High & Low Weather Summary for the Past Weeks

 TemperatureHumidityPressure
High43 °F (Jan 12, 1:30 pm)100% (Jan 12, 10:30 pm)30.82 "Hg (Jan 12, 10:30 pm)
Low7 °F (Jan 18, 6:30 am)52% (Jan 14, 4:30 am)29.22 "Hg (Jan 5, 9:30 am)
Average23 °F77%30.03 "Hg
* Reported Jan 3 9:30 pm — Jan 18 9:30 pm, Stephenville, Weather by CustomWeather, © 2017

Note: Actual official high and low records may vary slightly from our data, if they occured in-between our weather recording intervals... More about our weather records

Advertising

Stephenville Weather History for the Previous 24 Hours

Scroll right to see more
 ConditionsComfort  
Time TempWeatherWind HumidityBarometerVisibility
9:30 pm
Wed, Jan 18
9 °FPassing clouds.6 mph85%30.20 "Hg15 mi
8:30 pm7 °FPassing clouds.6 mph85%30.22 "Hg15 mi
7:30 pm9 °FPassing clouds.6 mph85%30.22 "Hg15 mi
6:30 pm10 °FPassing clouds.6 mph85%30.22 "Hg15 mi
5:30 pm14 °FPassing clouds.5 mph92%30.23 "Hg15 mi
4:30 pm18 °FPassing clouds.No wind79%30.23 "Hg15 mi
3:30 pm19 °FPassing clouds.2 mph73%30.23 "Hg15 mi
2:30 pm18 °FScattered clouds.No wind79%30.23 "Hg15 mi
1:30 pm18 °FPartly sunny.6 mph73%30.23 "Hg15 mi
12:30 pm16 °FPartly sunny.3 mph73%30.24 "Hg15 mi
11:30 am14 °FPartly sunny.3 mph79%30.26 "Hg15 mi
10:30 am12 °FPartly sunny.5 mph79%30.27 "Hg15 mi
9:30 am9 °FScattered clouds.6 mph85%30.27 "Hg15 mi
8:30 am9 °FScattered clouds.6 mph85%30.27 "Hg15 mi
7:30 am9 °FPassing clouds.8 mph85%30.26 "Hg15 mi
6:30 am7 °FClear.5 mph85%30.25 "Hg15 mi
5:30 am12 °FPassing clouds.6 mph79%30.25 "Hg15 mi
4:30 am14 °FClear.9 mph73%30.22 "Hg15 mi
3:30 am12 °FPassing clouds.2 mph85%30.22 "Hg15 mi
3:24 am16 °FClear.6 mph73%30.21 "Hg15 mi
2:30 am18 °FSnow flurries. Passing clouds.15 mph73%30.20 "Hg15 mi
1:30 am18 °FSnow flurries. Passing clouds.17 mph79%30.18 "Hg15 mi
12:30 am12 °FPassing clouds.2 mph79%30.17 "Hg15 mi
12:08 am14 °FPassing clouds.6 mph79%30.16 "Hg15 mi
11:30 pm
Tue, Jan 17
16 °FSnow flurries. Passing clouds.7 mph73%30.16 "Hg15 mi
Weather by CustomWeather, © 2017

See weather overviewHow to use our weather pages